Weather History for Midland, TX

Change the Weather History Date:

Thursday, October 3, 2013

  Actual Average Record
Temperature  
Mean Temperature 81 °F 69 °F  
Max Temperature 94 °F 82 °F 99 °F (2000)
Min Temperature 68 °F 56 °F 39 °F (1987)
Degree Days  
Heating Degree Days 0 1  
Month to date heating degree days 0 3  
Since 1 July heating degree days 0 14  
Cooling Degree Days 16 5  
Month to date cooling degree days 45 17  
Year to date cooling degree days 2604 2196  
Growing Degree Days 31 (Base 50)    
Moisture  
Dew Point 59 °F    
Average Humidity 52    
Maximum Humidity 79    
Minimum Humidity 24    
Precipitation  
Precipitation 0.00 in 0.07 in 1.83 in (1953)
Month to date precipitation 0.00 0.20  
Year to date precipitation 4.84 11.78  
Snow  
Snow 0.00 in - - ()
Month to date snowfall 0.0  
Since 1 July snowfall 0.0  
Since 1 September snowfall 0.0  
Snow Depth 0.00 in    
Sea Level Pressure  
Sea Level Pressure 29.72 in    
Wind  
Wind Speed 13 mph (South)    
Max Wind Speed 23 mph    
Max Gust Speed 31 mph    
Visibility 10 miles    
Events      
T = Trace of Precipitation, MM = Missing Value Source: NWS Daily Summary

Daily Weather History Graph

Daily Weather History Graph

Search for Another Location

Airport:

Trip Planner

Search our weather history database for the weather conditions in past years. The results will help you decide how hot, cold, wet, or windy it might be!

Date:

Astronomy

Oct. 03, 2013 Rise Set
Actual Time 7:44 AM CDT 7:30 PM CDT
Civil Twilight 7:19 AM CDT 7:55 PM CDT
Nautical Twilight 6:51 AM CDT 8:23 PM CDT
Astronomical Twilight 6:23 AM CDT 8:51 PM CDT
Moon 6:22 AM CDT (10/3) 6:39 PM CDT (10/3)
Length of Visible Light 12h 35m
Length of Day
11h 46m
Waning Crescent, 2% of the Moon is Illuminated
Oct 3
Waning Crescent
Oct 4
New
Oct 11
First Quarter
Oct 18
Full
Oct 26
Last Quarter

Hourly Weather History & Observations

Time (CDT) Temp. Heat Index Dew Point Humidity Pressure Visibility Wind Dir Wind Speed Gust Speed Precip Events Conditions
12:53 AM 73.9 °F - 63.0 °F 68% 29.77 in 10.0 mi South 10.4 mph - N/A   Clear
1:53 AM 71.1 °F - 62.1 °F 73% 29.76 in 10.0 mi SSE 6.9 mph - N/A   Clear
2:53 AM 71.1 °F - 63.0 °F 75% 29.75 in 10.0 mi South 6.9 mph - N/A   Clear
3:53 AM 71.1 °F - 64.0 °F 78% 29.74 in 10.0 mi South 10.4 mph - N/A   Clear
4:53 AM 71.1 °F - 64.0 °F 78% 29.73 in 10.0 mi South 13.8 mph - N/A   Clear
5:53 AM 71.1 °F - 62.1 °F 73% 29.73 in 10.0 mi SSW 11.5 mph - N/A   Clear
6:53 AM 69.1 °F - 62.1 °F 78% 29.75 in 10.0 mi South 6.9 mph - N/A   Clear
7:53 AM 69.1 °F - 60.1 °F 73% 29.75 in 10.0 mi South 6.9 mph - N/A   Clear
8:53 AM 71.1 °F - 61.0 °F 70% 29.78 in 10.0 mi South 6.9 mph - N/A   Clear
9:53 AM 75.9 °F - 62.1 °F 62% 29.78 in 10.0 mi SSW 8.1 mph - N/A   Clear
10:53 AM 82.0 °F 82.4 °F 60.1 °F 47% 29.78 in 10.0 mi South 15.0 mph - N/A   Clear
11:53 AM 87.1 °F 85.7 °F 55.9 °F 35% 29.77 in 10.0 mi South 11.5 mph - N/A   Clear
12:53 PM 90.0 °F - 48.9 °F 24% 29.74 in 10.0 mi South 9.2 mph 18.4 mph N/A   Clear
1:53 PM 91.9 °F - 50.0 °F 24% 29.71 in 10.0 mi SSW 11.5 mph 19.6 mph N/A   Clear
2:53 PM 93.0 °F - 51.1 °F 24% 29.68 in 10.0 mi South 19.6 mph 24.2 mph N/A   Clear
3:53 PM 93.9 °F 91.4 °F 53.1 °F 25% 29.66 in 10.0 mi South 17.3 mph 23.0 mph N/A   Partly Cloudy
4:53 PM 91.9 °F 90.3 °F 55.9 °F 30% 29.65 in 10.0 mi South 17.3 mph 31.1 mph N/A   Partly Cloudy
5:53 PM 91.0 °F 90.0 °F 57.9 °F 33% 29.65 in 10.0 mi South 16.1 mph 24.2 mph N/A   Clear
6:53 PM 87.1 °F 86.7 °F 60.1 °F 40% 29.66 in 10.0 mi SSE 23.0 mph - N/A   Clear
7:53 PM 84.0 °F 84.0 °F 60.1 °F 44% 29.67 in 10.0 mi SSE 19.6 mph 23.0 mph N/A   Clear
8:53 PM 82.0 °F 82.7 °F 61.0 °F 49% 29.68 in 10.0 mi South 19.6 mph 27.6 mph N/A   Clear
9:53 PM 80.1 °F 81.2 °F 62.1 °F 54% 29.69 in 10.0 mi South 16.1 mph - N/A   Clear
11:53 PM 77.0 °F - 63.0 °F 62% 29.70 in 10.0 mi South 15.0 mph - N/A   Clear